Location: Acorn Hill
(36.4429°N, 76.5469°W)
Time: 13:25:35
(UTC+00:00)

BlueWalker 3 - Visible Passes

Search period start: 02 December 2022 00:00
Search period end: 12 December 2022 00:00
Orbit: 500 x 519 km, 53.2° (Epoch: 01 December)

Date Brightness Start Highest point End Pass type
(mag) Time Alt. Az. Time Alt. Az. Time Alt. Az.
07 Dec 4.2 22:31:49 10° NNE 22:32:06 10° NNE 22:32:23 10° NNE visible
08 Dec 4.6 00:08:01 10° NNW 00:08:29 13° NNW 00:08:29 13° NNW visible
08 Dec 3.7 23:49:34 10° NW 23:51:15 22° NNW 23:51:15 22° NNW visible
09 Dec 2.6 23:31:08 10° NW 23:34:13 40° N 23:34:13 40° N visible
10 Dec 2.2 23:12:40 10° NW 23:16:27 47° NE 23:17:25 38° E visible
11 Dec 5.3 00:52:10 10° W 00:52:20 11° W 00:52:20 11° W visible
11 Dec 2.1 22:54:13 10° NW 22:58:02 51° NE 23:01:03 15° ESE visible
